This demonstration page uses our WeatherBlox Daily Observations layout. Learn more.

Left ArrowRight Arrow

36.17497, -115.13722

Hourly Observations for September 6, 2015

Temp ( °F °C ) Dew Point ( °F °C ) Humidity (%) Winds ( mph kmh ) Pressure ( in mb ) Visibility ( mi km ) Precip ( " mm )
12:53 am 00:53 Clear 77 25 30 -1.1 18 18 N 6 9 29.89 1012 10 16 N/A
1:53 am 01:53 Clear 76 24.4 27 -2.8 16 16 NNW 3 6 29.89 1012 10 16 N/A
2:53 am 02:53 Clear 76 24.4 31 -0.6 19 19 N N/A 29.90 1013 10 16 N/A
3:53 am 03:53 Clear 70 21.1 33 0.6 26 26 N 5 7 29.91 1013 10 16 N/A
4:53 am 04:53 Clear 70 21.1 30 -1.1 23 23 NW 6 9 29.92 1013 10 16 N/A
5:53 am 05:53 Clear 68 20 33 0.6 27 27 NW 6 9 29.94 1014 10 16 N/A
6:53 am 06:53 Sunny 71 21.7 34 1.1 26 26 WNW 7 11 29.96 1015 10 16 N/A
7:53 am 07:53 Mostly Cloudy 75 23.9 29 -1.7 18 18 N N/A 29.98 1015 10 16 N/A
8:53 am 08:53 Mostly Sunny 80 26.7 29 -1.7 15 15 NNW 5 7 29.98 1015 10 16 N/A
9:53 am 09:53 Partly Cloudy 86 30 31 -0.6 14 14 N N/A 29.98 1015 10 16 N/A
10:53 am 10:53 Sunny 87 30.6 34 1.1 15 15 N N/A 29.98 1015 10 16 N/A
11:53 am 11:53 Sunny 89 31.7 46 7.8 23 23 VRB 6 9 29.96 1014 10 16 N/A
12:53 pm 12:53 Sunny 92 33.3 50 10 24 24 SSE 12 19 29.92 1013 10 16 N/A
1:53 pm 13:53 Sunny 93 33.9 51 10.6 24 24 S 10 17 29.90 1012 10 16 N/A
2:53 pm 14:53 Sunny 93 33.9 52 11.1 25 25 SE 12 19 29.86 1011 10 16 N/A
3:53 pm 15:53 Sunny 94 34.4 51 10.6 23 23 SSW 9 15 29.85 1011 10 16 N/A
4:53 pm 16:53 Mostly Cloudy 96 35.6 49 9.4 20 20 SSE 9 15 29.82 1010 10 16 N/A
5:53 pm 17:53 Mostly Sunny 96 35.6 47 8.3 19 19 S 10 17 29.81 1010 10 16 N/A
6:53 pm 18:53 Mostly Sunny 95 35 45 7.2 18 18 W 13 20 29.80 1009 10 16 N/A
7:53 pm 19:53 Clear 92 33.3 45 7.2 20 20 W 12 19 29.81 1010 10 16 N/A
8:53 pm 20:53 Clear 91 32.8 46 7.8 21 21 W 8 13 29.84 1010 10 16 N/A
9:53 pm 21:53 Clear 88 31.1 46 7.8 23 23 SW 5 7 29.86 1011 10 16 N/A
10:53 pm 22:53 Clear 87 30.6 46 7.8 24 24 S 5 7 29.87 1011 10 16 N/A
11:53 pm 23:53 Clear 86 30 47 8.3 26 26 SSW 6 9 29.87 1012 10 16 N/A

Powered by AerisWeather